Location: Waco, TX
(31.5480°N, 97.1670°W)
Time: 00:34:53
(UTC-06:00)

ISS - Pass Details

Date: 13 December 2017
Orbit: 403 x 407 km, 51.6° (Epoch: 12 December)

Event Time Altitude Azimuth Distance (km) Brightness Sun altitude
Rises 18:49:18 0° 328° (NNW) 2,324 0.2 -17.2°
Reaches altitude 10° 18:51:41 10° 344° (NNW) 1,461 -1.0 -17.7°
Enters shadow 18:52:38 15° 357° (N) 1,184 -1.6 -17.8°
Maximum altitude 18:54:19 22° 37° (NE) 938 - -18.2°
Drops below altitude 10° 18:56:57 10° 91° (E) 1,454 - -18.7°
Sets 18:59:19 0° 107° (ESE) 2,310 - -19.2°
